Trabzon, Turkey

1:19 AM +03 on July 26, 2017 (GMT +0300)
Trabzon

Weather History for LTCG - April, 2013

Change the Weather History Date:

Thursday, April 25, 2013

  Actual Average Record
Temperature  
Mean Temperature 52 °F -  
Max Temperature 57 °F 62 °F 73 °F (2016)
Min Temperature 47 °F 53 °F 41 °F (2006)
Degree Days  
Heating Degree Days 13    
Growing Degree Days 2 (Base 50)    
Moisture  
Dew Point 40 °F    
Average Humidity 62    
Maximum Humidity 82    
Minimum Humidity 40    
Precipitation  
Precipitation 0.00 in - - ()
Sea Level Pressure  
Sea Level Pressure 30.29 in    
Wind  
Wind Speed 4 mph ()    
Max Wind Speed 12 mph    
Max Gust Speed -    
Visibility 6.5 miles    
Events      
Averages and records for this station are not official NWS values.
T = Trace of Precipitation, MM = Missing Value Source: Averaged Metar Reports

Daily Weather History Graph

Daily Weather History Graph

Search for Another Location

Airport or City:

Trip Planner

Search our weather history database for the weather conditions in past years. The results will help you decide how hot, cold, wet, or windy it might be!

Date:

Astronomy

Apr. 25, 2013 Rise Set
Actual Time 5:27 AM EEST 7:11 PM EEST
Civil Twilight 4:57 AM EEST 7:40 PM EEST
Nautical Twilight 4:22 AM EEST 8:16 PM EEST
Astronomical Twilight 3:44 AM EEST 8:54 PM EEST
Moon 6:59 PM EEST 4:55 AM EEST
Length of Visible Light 14h 42m
Length of Day
13h 44m
Full, 100% of the Moon is Illuminated
Apr 25
Full
Apr 25
Full
May 2
Last Quarter
May 10
New
May 18
First Quarter

Hourly Weather History & Observations

Time (EEST) Temp. Dew Point Humidity Pressure Visibility Wind Dir Wind Speed Gust Speed Precip Events Conditions
12:20 AM 50.0 °F 28.4 °F 43% 30.36 in - SSW 6.9 mph - N/A   Clear
12:50 AM 51.8 °F 28.4 °F 41% 30.33 in - Variable 5.8 mph - N/A   Clear
1:20 AM 50.0 °F 28.4 °F 43% 30.33 in - East 4.6 mph - N/A   Clear
1:50 AM 48.2 °F 33.8 °F 58% 30.33 in - ESE 4.6 mph - N/A   Clear
2:20 AM 50.0 °F 30.2 °F 47% 30.36 in - SSE 4.6 mph - N/A   Clear
2:50 AM 48.2 °F 30.2 °F 50% 30.36 in 6.2 mi Variable 2.3 mph - N/A   Scattered Clouds
3:00 AM 47 °F 31 °F 40% 30.36 in 12 mi SW 2.3 mph - -   Partly Cloudy
3:20 AM 50.0 °F 35.6 °F 58% 30.36 in 6.2 mi Calm Calm - N/A   Scattered Clouds
3:50 AM 50.0 °F 33.8 °F 54% 30.33 in 6.2 mi South 3.5 mph - N/A   Mostly Cloudy
4:20 AM 50.0 °F 33.8 °F 54% 30.33 in 6.2 mi Calm Calm - N/A   Mostly Cloudy
4:50 AM 51.8 °F 32.0 °F 47% 30.33 in 6.2 mi Calm Calm - N/A   Mostly Cloudy
5:50 AM 50.0 °F 33.8 °F 54% 30.33 in 6.2 mi Calm Calm - N/A   Mostly Cloudy
6:20 AM 50.0 °F 33.8 °F 54% 30.33 in 6.2 mi Calm Calm - N/A   Mostly Cloudy
6:50 AM 51.8 °F 39.2 °F 62% 30.33 in 6.2 mi Calm Calm - N/A   Mostly Cloudy
7:20 AM 53.6 °F 39.2 °F 58% 30.33 in 6.2 mi NW 1.2 mph - N/A   Mostly Cloudy
7:50 AM 51.8 °F 39.2 °F 62% 30.33 in 6.2 mi ESE 1.2 mph - N/A   Mostly Cloudy
8:20 AM 53.6 °F 35.6 °F 51% 30.33 in 6.2 mi NE 1.2 mph - N/A   Mostly Cloudy
8:50 AM 53.6 °F 37.4 °F 54% 30.33 in 6.2 mi North 3.5 mph - N/A   Mostly Cloudy
9:00 AM 54 °F 37 °F 42% 30.34 in 12 mi North 3.5 mph - -   Mostly Cloudy
9:20 AM 53.6 °F 37.4 °F 54% 30.33 in 6.2 mi ENE 2.3 mph - N/A   Mostly Cloudy
9:50 AM 51.8 °F 41.0 °F 67% 30.33 in 6.2 mi ENE 3.5 mph - N/A   Mostly Cloudy
10:20 AM 51.8 °F 42.8 °F 71% 30.33 in 6.2 mi SE 4.6 mph - N/A   Mostly Cloudy
10:50 AM 51.8 °F 42.8 °F 71% 30.30 in 6.2 mi East 4.6 mph - N/A   Mostly Cloudy
11:20 AM 51.8 °F 46.4 °F 82% 30.30 in 6.2 mi East 4.6 mph - N/A   Mostly Cloudy
11:50 AM 51.8 °F 42.8 °F 71% 30.30 in 6.2 mi East 4.6 mph - N/A   Mostly Cloudy
12:20 PM 53.6 °F 44.6 °F 72% 30.30 in 6.2 mi East 8.1 mph - N/A   Mostly Cloudy
12:50 PM 53.6 °F 46.4 °F 77% 30.30 in 6.2 mi East 5.8 mph - N/A   Mostly Cloudy
1:20 PM 53.6 °F 48.2 °F 82% 30.30 in 6.2 mi East 6.9 mph - N/A   Mostly Cloudy
1:50 PM 53.6 °F 46.4 °F 77% 30.30 in 6.2 mi East 6.9 mph - N/A   Mostly Cloudy
2:20 PM 57.2 °F 41.0 °F 55% 30.30 in 6.2 mi East 6.9 mph - N/A   Mostly Cloudy
2:50 PM 55.4 °F 44.6 °F 67% 30.27 in 6.2 mi East 8.1 mph - N/A   Mostly Cloudy
3:00 PM 55 °F 44 °F 57% 30.30 in 12 mi East 8.1 mph - -   Mostly Cloudy
3:20 PM 55.4 °F 44.6 °F 67% 30.27 in 6.2 mi East 9.2 mph - N/A   Mostly Cloudy
3:50 PM 53.6 °F 44.6 °F 72% 30.27 in 6.2 mi East 8.1 mph - N/A   Mostly Cloudy
4:20 PM 55.4 °F 44.6 °F 67% 30.27 in 6.2 mi East 9.2 mph - N/A   Mostly Cloudy
4:50 PM 55.4 °F 42.8 °F 63% 30.27 in 6.2 mi East 9.2 mph - N/A   Mostly Cloudy
5:20 PM 55.4 °F 42.8 °F 63% 30.24 in 6.2 mi East 11.5 mph - N/A   Mostly Cloudy
5:50 PM 55.4 °F 44.6 °F 67% 30.24 in 6.2 mi East 8.1 mph - N/A   Mostly Cloudy
6:20 PM 53.6 °F 46.4 °F 77% 30.24 in 6.2 mi ENE 3.5 mph - N/A   Mostly Cloudy
6:50 PM 53.6 °F 48.2 °F 82% 30.24 in 6.2 mi ENE 3.5 mph - N/A   Mostly Cloudy
7:20 PM 53.6 °F 48.2 °F 82% 30.24 in 6.2 mi Calm Calm - N/A   Mostly Cloudy
7:50 PM 57.2 °F 46.4 °F 67% 30.21 in 5.0 mi Calm Calm - N/A   Mostly Cloudy
8:20 PM 57.2 °F 48.2 °F 72% 30.24 in 5.0 mi Calm Calm - N/A   Mostly Cloudy
8:50 PM 57.2 °F 44.6 °F 63% 30.24 in 6.2 mi Variable 2.3 mph - N/A   Mostly Cloudy
9:00 PM 57 °F 45 °F 54% 30.24 in 12 mi South 2.3 mph - -   Mostly Cloudy
9:20 PM 57.2 °F 44.6 °F 63% 30.21 in 3.7 mi Variable 1.2 mph - N/A   Mostly Cloudy
9:50 PM 57.2 °F 41.0 °F 55% 30.21 in 3.7 mi Calm Calm - N/A   Mostly Cloudy
10:20 PM 55.4 °F 44.6 °F 67% 30.21 in 5.6 mi ESE 3.5 mph - N/A   Mostly Cloudy
10:50 PM 53.6 °F 42.8 °F 67% 30.21 in 6.2 mi ESE 3.5 mph - N/A   Mostly Cloudy
11:20 PM 53.6 °F 42.8 °F 67% 30.21 in 6.2 mi Variable 1.2 mph - N/A   Mostly Cloudy
11:50 PM 53.6 °F 41.0 °F 62% 30.21 in 6.2 mi Calm Calm - N/A   Mostly Cloudy